Location: Ecklingerode
(51.5036°N, 10.3122°E)
Time: 07:44:34
(UTC+00:00)

ATLAS 5 CENTAUR R/B - Pass Details

Date: 29 October 2020
Orbit: 522 x 1136 km, 63.4° (Epoch: 30 November)

Event Time Altitude Azimuth Distance (km) Brightness Sun altitude
Rises 16:23:52 0° 265° (W) 2,775 7.1 -4.9°
Reaches altitude 10° 16:26:13 10° 277° (W) 1,943 5.4 -5.2°
Maximum altitude 16:30:02 29° 338° (NNW) 1,213 3.2 -5.8°
Drops below altitude 10° 16:34:24 10° 39° (NE) 2,238 3.9 -6.5°
Enters shadow 16:36:05 - 46° (NE) 2,836 4.4 -6.7°
